User: anonymous   Login
Location: Unspecified
(0.0000°N, 0.0000°E)
Time: 05:29:26
(UTC+00:00)
Language:

DMSP 5D-2 F-14 - Orbit

View from above orbital plane
View from above orbital plane
View from above satellite
View from above satellite

Ground track
Ground track

The orbit data is extracted from the following two-line orbital elements,

1 24753U 97012A   17343.27512586 0.00000050  00000-0  25496-4 0    02
2 24753  99.0060 333.1357 0006000 295.0512  64.9487 14.15753213    02
Epoch (UTC): 09 December 2017 06:36:10
Eccentricity: 0.0006000
inclination: 99.0060°
perigee height: 835 km
apogee height: 844 km
right ascension of ascending node: 333.1357°
argument of perigee: 295.0512°
revolutions per day: 14.15753213
mean anomaly at epoch: 64.9487°
orbit number at epoch: 0

The dashed part of the orbit path shows where the satellite is in the earth's shadow,  

DLR